Weather History for KMCF - February, 2013

Change the Weather History Date:

Monday, February 4, 2013

  Actual Average (KTPA) Record (KTPA)
Temperature  
Mean Temperature 56 °F 62 °F  
Max Temperature 71 °F 71 °F 84 °F (1957)
Min Temperature 41 °F 53 °F 24 °F (1958)
Degree Days  
Heating Degree Days 9 5  
Month to date heating degree days 20  
Since 1 July heating degree days 385  
Cooling Degree Days 0 2  
Month to date cooling degree days 8  
Year to date cooling degree days 58  
Growing Degree Days 6 (Base 50)    
Moisture  
Dew Point 43 °F    
Average Humidity 67    
Maximum Humidity 98    
Minimum Humidity 30    
Precipitation  
Precipitation 0.00 in 0.10 in 2.11 in (1933)
Month to date precipitation 0.41  
Year to date precipitation 2.64  
Sea Level Pressure  
Sea Level Pressure 30.11 in    
Wind  
Wind Speed 3 mph (NE)    
Max Wind Speed 9 mph    
Max Gust Speed -    
Visibility 10 miles    
Events      
T = Trace of Precipitation, MM = Missing Value Source: NWS Daily Summary

Daily Weather History Graph

Daily Weather History Graph

Search for Another Location

Airport or City:

Trip Planner

Search our weather history database for the weather conditions in past years. The results will help you decide how hot, cold, wet, or windy it might be!

Date:

Astronomy

Feb. 04, 2013 Rise Set
Actual Time 7:15 AM EST 6:13 PM EST
Civil Twilight 6:50 AM EST 6:37 PM EST
Nautical Twilight 6:22 AM EST 7:05 PM EST
Astronomical Twilight 5:55 AM EST 7:33 PM EST
Moon 1:43 AM EST (2/4) 12:43 PM EST (2/4)
Length of Visible Light 11h 46m
Length of Day
10h 58m
Last Quarter, 37% of the Moon is Illuminated
Feb 4
Last Quarter
Feb 10
New
Feb 17
First Quarter
Feb 25
Full
Mar 4
Last Quarter

Hourly Weather History & Observations

Time (EST) Temp. Windchill Dew Point Humidity Pressure Visibility Wind Dir Wind Speed Gust Speed Precip Events Conditions
12:55 AM 47.8 °F - 44.8 °F 89% 30.14 in 10.0 mi Calm Calm - N/A   Clear
1:55 AM 44.4 °F - 42.6 °F 93% 30.14 in 10.0 mi Calm Calm - N/A   Clear
2:55 AM 45.1 °F 42.8 °F 43.5 °F 94% 30.13 in 10.0 mi North 4.6 mph - N/A   Clear
3:55 AM 43.3 °F - 41.7 °F 94% 30.13 in 10.0 mi Calm Calm - N/A   Clear
5:55 AM 41.9 °F 39.0 °F 40.6 °F 95% 30.11 in 10.0 mi ENE 4.6 mph - N/A   Clear
6:55 AM 43.0 °F 41.3 °F 42.4 °F 98% 30.13 in 10.0 mi East 3.5 mph - N/A   Clear
7:55 AM 44.2 °F 41.8 °F 43.7 °F 98% 30.14 in 10.0 mi ESE 4.6 mph - N/A   Clear
8:55 AM 55.2 °F - 53.1 °F 92% 30.16 in 10.0 mi ESE 3.5 mph - N/A   Clear
9:55 AM 60.6 °F - 51.3 °F 71% 30.16 in 10.0 mi East 5.8 mph - N/A   Clear
10:55 AM 66.7 °F - 43.3 °F 43% 30.15 in 10.0 mi Variable 5.8 mph - N/A   Clear
11:55 AM 68.0 °F - 38.8 °F 34% 30.14 in 10.0 mi ESE 9.2 mph - N/A   Clear
12:55 PM 69.6 °F - 36.7 °F 30% 30.11 in 10.0 mi Variable 3.5 mph - N/A   Clear
1:55 PM 71.8 °F - 39.0 °F 30% 30.09 in 10.0 mi WNW 4.6 mph - N/A   Clear
2:58 PM 71.4 °F - 38.8 °F 31% 30.08 in 10.0 mi Variable 4.6 mph - N/A   Clear
3:58 PM 71.2 °F - 40.5 °F 33% 30.06 in 10.0 mi WNW 4.6 mph - N/A   Clear
4:58 PM 66.6 °F - 42.1 °F 41% 30.07 in 10.0 mi North 9.2 mph - N/A   Scattered Clouds
5:58 PM 64.8 °F - 47.5 °F 53% 30.08 in 10.0 mi NNW 5.8 mph - N/A   Clear
6:58 PM 57.4 °F - 45.5 °F 65% 30.08 in 10.0 mi North 4.6 mph - N/A   Clear
7:58 PM 55.2 °F - 44.6 °F 67% 30.08 in 10.0 mi North 4.6 mph - N/A   Clear
8:58 PM 54.1 °F - 45.3 °F 72% 30.10 in 10.0 mi NNE 4.6 mph - N/A   Clear
9:58 PM 51.4 °F - 43.0 °F 73% 30.10 in 5.0 mi NNE 3.5 mph - N/A   Haze
10:58 PM 48.2 °F - 42.3 °F 80% 30.10 in 4.0 mi East 5.8 mph - N/A   Haze